Regional Weather Roundup
Issued by NWS

Home | Current Version | Previous Version | Graphics & Text | Print | Product List | Glossary On
Versions: 1 2 3 4 5 6 7 8 9 10 11 12 13 14 15 16 17 18 19 20 21 22 23 24 25 26 27 28 29 30 31 32 33 34 35 36 37 38 39 40 41 42 43 44 45 46 47 48 49 50
000
ASUS45 KTFX 260704
RWRMT
MONTANA HOURLY WEATHER ROUNDUP
NATIONAL WEATHER SERVICE GREAT FALLS MT
1204 AM MST MON JAN 26 2015

NOTE: "FAIR" INDICATES FEW OR NO CLOUDS BELOW 12000 FEET WITH NO
SIGNIFICANT WEATHER AND/OR OBSTRUCTIONS TO VISIBILITY.

* THESE STATIONS ARE NOT UNDER NWS QUALITY CONTROL. THEY DO NOT
   REPORT WEATHER SUCH AS PRECIPITATION OR FOG.

MTZ001>007-043-260800-
WEST OF THE DIVIDE
CITY           SKY/WX    TMP DP  RH WIND       PRES   REMARKS
KALISPELL      FOG       27  25  92 CALM      30.17F VSB M1/4
MISSOULA       CLEAR     34  28  79 E5        30.25F WCI  29
BUTTE          CLEAR     30  25  82 CALM      30.31S
MULLAN PASS    CLEAR     41  27  58 S10G21    30.23F
* ANACONDA     CLEAR     48  25  41 SW17G26    N/A
* ESSEX        N/A       29  28  96 W2         N/A
* LINCOLN      N/A       29  26  89 NE2        N/A
* LOOKOUT PASS N/A       34  31  89 S1G6       N/A
* POLSON       N/A       42  28  58 E1         N/A
* RONAN APT    PTCLDY    32  32 100 N/A        N/A
* SEELEY LAKE  N/A       25  23  92 NE1        N/A
* THOMP F APT  CLEAR     31  29  92 N7         N/A   WCI  24
$$

MTZ008-052>055-260800-
SOUTHWEST MONTANA
CITY           SKY/WX    TMP DP  RH WIND       PRES   REMARKS
BOZEMAN        CLOUDY    34  28  79 S5        30.27S WCI  29
DILLON         PTCLDY    37  27  67 S14       30.32F WCI  28
* W YELLOWSTON MOCLDY    30  29  96 N/A        N/A
* THREE FORKS  MOCLDY    34  32  92 N/A        N/A
* BOULDER HILL N/A       45  20  37 S7         N/A
* MONIDA PASS  N/A       24  24 100 SE8        N/A   WCI  15
* RAYNOLDS PAS N/A       30  10  43 SE16G21    N/A   WCI  19
* WHITEHALL    N/A       42  28  58 E5G13      N/A
* WISE RIVER   N/A       32  25  75 W2         N/A
$$

MTZ009>010-012-014-046-048-049-054-260800-
EAST SLOPES AND CENTRAL MONTANA
CITY           SKY/WX    TMP DP  RH WIND       PRES   REMARKS
CUT BANK       PTCLDY    45  28  51 SW12      30.03S
GREAT FALLS    MOCLDY    54  27  35 SW17      30.08S
HELENA         PTCLDY    37  28  70 W7        30.21R WCI  32
MALMSTROM AFB  MOCLDY    50  28  43 SW21      30.09S
* DEARBORN     N/A       56  26  32 S14        N/A
* EAST GLACIER N/A       49  26  41 S11G16     N/A
* MONARCH      N/A       49  23  36 SW14G23    N/A
* PENDROY      N/A       48  29  48 W4         N/A
* ROGERS PASS  N/A       45  22  40 SE9G14     N/A
* SWEET GRASS  N/A       46  28  50 W17        N/A
$$

MTZ011-013-016-021-035-040-045-047-050-051-260800-
NORTH CENTRAL MONTANA
CITY           SKY/WX    TMP DP  RH WIND       PRES   REMARKS
HAVRE          CLEAR     45  34  65 SW20G26   29.98R
LEWISTOWN      PTCLDY    45  30  56 SW21      30.06S
* N BAR RANCH  CLEAR     54  28  37 W16G23    30.04R
* CHESTER      N/A       42  31  65 SW12G18    N/A
* DENTON       N/A       49  30  48 SW19G28    N/A
* GEYSER       N/A       48  24  39 W5         N/A
* JUDITH GAP   N/A       48  29  48 W26        N/A
* LOMA         N/A       50  32  50 SW24G30    N/A
$$

MTZ017>020-022>027-061-062-260800-
NORTHEAST MONTANA
CITY           SKY/WX    TMP DP  RH WIND       PRES   REMARKS
GLASGOW        CLEAR     37  32  82 W6        29.93R WCI  32
GLENDIVE       PTCLDY    39  34  82 CALM      29.95S
JORDAN         CLEAR     36  30  79 W9        29.97S WCI  29
SIDNEY         CLEAR     36  30  79 S9        29.91S WCI  29
WOLF POINT     CLEAR     37  34  89 SW10      29.92R WCI  30
* BEAVER HILL  N/A       39  34  82 SW11       N/A   WCI  32
* CIRCLE       N/A       40  35  82 N/A        N/A
* LINDSAY DVD  N/A       43  34  71 W18G23     N/A
* NAVAJO       N/A       42  31  65 NW20       N/A
* SACO         N/A       36  32  85 NW6        N/A   WCI  31
$$

MTZ028>042-056>058-260800-
SOUTHCENTRAL AND SOUTHEAST MONTANA
CITY           SKY/WX    TMP DP  RH WIND       PRES   REMARKS
BAKER          PTCLDY    37  32  82 W14       29.95R WCI  28
BILLINGS       CLOUDY    48  28  46 S13G23    30.09R
LIVINGSTON     CLOUDY    52  27  38 SW32G41   30.19F
MILES CITY     PTCLDY    39  30  70 N3        29.99R
* LAUREL APT   CLOUDY    43  25  49 SW10       N/A
* ROUNDUP APT  MOCLDY    57  27  32 W23G33     N/A
* ALZADA       N/A       40  31  70 W6         N/A   WCI  36
* HYSHAM       N/A       46  26  46 W3         N/A
* LAME DEER    N/A       52  29  41 W16G24     N/A
* REED POINT   N/A       58  30  35 W15G20     N/A
* ROSCOE HILL  N/A       58  16  19 W8G20      N/A
$$

REGIONAL REPORTS...DAKOTAS
CITY           SKY/WX    TMP DP  RH WIND       PRES   REMARKS
WILLISTON      PTCLDY    37  34  89 SE5       29.86R WCI  33
DICKINSON      PTCLDY    43  34  71 W17       29.83R
CROSBY         MOCLDY    39  36  89 W15G23    29.83R WCI  31
WATFORD CITY   CLEAR     39  34  82 W6        29.84R WCI  35
BISMARCK       PTCLDY    37  32  82 NW12      29.78R WCI  29
GRAND FORKS    PTCLDY    28  27  96 S9G18     29.63F WCI  19
FARGO          MOCLDY    30  25  82 S22G31    29.65F WCI  17
BUFFALO SD     PTCLDY    39  32  76 W15       29.88R WCI  31
RAPID CITY     MOCLDY    46  30  54 NW9       29.95S
$$

REGIONAL REPORTS...WYOMING/IDAHO/WASHINGTON
CITY           SKY/WX    TMP DP  RH WIND       PRES   REMARKS
GILLETTE       CLOUDY    45  28  51 W12       30.09R
SHERIDAN       CLOUDY    39  28  65 SW6       30.09R WCI  35
CODY           CLOUDY    55  23  29 W9        30.19S
YELLOWSTONE LA CLOUDY    23  21  92 CALM      30.47S
SALMON         CLEAR     19  18  96 CALM      30.42R VSB 1/2
MULLAN PASS    CLEAR     41  27  58 S10G21    30.23S
SAND POINT     FOG       34  34 100 CALM      30.21R VSB M1/4
SPOKANE        FOG       37  37 100 N6        30.16F VSB M1/4 WCI  32

$$



USA.gov is the U.S. government's official web portal to all federal, state and local government web resources and services.